|
|
Asteroid 2011 CD22
(Preview)
Orbital elements: 2011 CD22 Earth MOID = 0.0253 AU Epoch 2011 Feb. 8.0 TT = JDT 2455600.5 MPC M 299.67153 (2000.0) P Q n 0.67229930 Peri. 129.07430 -0.14869227 +0.98825912 a 1.2905087 Node 132.33697 -0.92132923 -0.12554009 e 0.5265085 Incl. 2.72442 -0.35922564 -0.08708382 P 1.47 H 22.3 G 0.15 MPE...
|
Blobrana
|
1
|
|
|
|
|
Asteroid 2008 FL7
(Preview)
Asteroid 2008 FL7 will make a near-Earth flyby (0.033 AU) on the 14th March, 2011
|
Blobrana
|
0
|
|
|
|
|
Asteroid 2011 EP51
(Preview)
Orbital elements: 2011 EP51 Earth MOID = 0.0246 AU Epoch 2011 Feb. 8.0 TT = JDT 2455600.5 MPC M 174.45359 (2000.0) P Q n 1.30272323 Peri. 169.53529 +0.86464718 +0.50200026 a 0.8302992 Node 160.29544 -0.46500584 +0.81442432 e 0.3019287 Incl. 3.31878 -0.19014423 +0.29104770 P 0.76 H 24.7 G 0.15 U 9 M...
|
Blobrana
|
0
|
|
|
|
|
Asteroid 2011 EO51
(Preview)
Orbital elements: 2011 EO51 PHA, Earth MOID = 0.0254 AU Epoch 2011 Feb. 8.0 TT = JDT 2455600.5 MPC M 13.05291 (2000.0) P Q n 0.50629448 Peri. 227.01829 +0.73913787 -0.67348367 a 1.5590759 Node 175.28758 +0.64734114 +0.70630129 e 0.7857556 Incl. 6.81216 +0.18607704 +0.21807852 P 1.95 H 21.0 G 0.15...
|
Blobrana
|
0
|
|
|
|
|
Asteroid 2011 EN51
(Preview)
Orbital elements: 2011 EN51 Earth MOID = 0.0033 AU Epoch 2011 Feb. 8.0 TT = JDT 2455600.5 MPC M 12.31315 (2000.0) P Q n 0.50395271 Peri. 265.34422 +0.42049127 -0.90476632 a 1.5639020 Node 159.37597 +0.88987002 +0.39670773 e 0.6376609 Incl. 11.08338 +0.17697018 +0.15498669 P 1.96 H 22.1 G 0.15 U 8 M...
|
Blobrana
|
0
|
|
|
|
|
Asteroid 2011 EE51
(Preview)
Orbital elements: 2011 EE51 Earth MOID = 0.0538 AU Epoch 2011 Feb. 8.0 TT = JDT 2455600.5 MPC M 315.61630 (2000.0) P Q n 0.49612220 Peri. 120.57282 -0.02171728 +0.99796570 a 1.5803148 Node 148.01489 -0.95165437 -0.00226059 e 0.6183411 Incl. 6.49744 -0.30640221 -0.06371297 P 1.99 H 24.3 G 0.15 U 9 M...
|
Blobrana
|
1
|
|
|
|
|
Asteroid 2008 GV20
(Preview)
Orbital elements: 2008 GV20 Earth MOID = 0.2539 AU Epoch 2011 Feb. 8.0 TT = JDT 2455600.5 MPC M 301.47480 (2000.0) P Q n 0.34613617 Peri. 182.20888 +0.85738232 +0.48574243 a 2.0089605 Node 146.93199 -0.46730012 +0.87323301 e 0.6225179 Incl. 18.16971 -0.21569921 +0.03896664 P 2.85 H 18.7 G 0.15 U 2...
|
Blobrana
|
0
|
|
|
|
|
Asteroid 2011 EL47
(Preview)
Orbital elements: 2011 EL47 Earth MOID = 0.2679 AU Epoch 2011 Feb. 8.0 TT = JDT 2455600.5 MPC M 24.49333 (2000.0) P Q n 0.44806932 Peri. 188.10672 +0.97828004 -0.20525603 a 1.6913724 Node 184.09352 +0.20555014 +0.97861749 e 0.8606743 Incl. 23.92603 +0.02678263 -0.01333281 P 2.20 H 19.9 G 0.15 U 9 M...
|
Blobrana
|
0
|
|
|
|
|
Asteroid 2011 EK47
(Preview)
Orbital elements: 2011 EK47 Earth MOID = 0.0374 AU Epoch 2011 Feb. 8.0 TT = JDT 2455600.5 MPC M 94.42818 (2000.0) P Q n 1.13066510 Peri. 43.93496 +0.94128292 -0.32831240 a 0.9125291 Node 334.90973 +0.23509003 +0.80472168 e 0.2767013 Incl. 10.69899 +0.24232032 +0.49460488 P 0.87 H 23.9 G 0.15 U 8 MP...
|
Blobrana
|
0
|
|
|
|
|
Asteroid 2011 EJ47
(Preview)
Orbital elements: 2011 EJ47 PHA, Earth MOID = 0.0408 AU Epoch 2011 Feb. 8.0 TT = JDT 2455600.5 MPC M 22.64718 (2000.0) P Q n 0.60175557 Peri. 116.97497 +0.05312283 -0.99214457 a 1.3894917 Node 329.32864 +0.81931319 +0.10814358 e 0.3515431 Incl. 12.82788 +0.57087990 -0.06288176 P 1.64 H 21.9 G 0.1...
|
Blobrana
|
0
|
|
|
|
|
Asteroid 2011 ED41
(Preview)
Orbital elements: 2011 ED41 Earth MOID = 0.0473 AU Epoch 2011 Feb. 8.0 TT = JDT 2455600.5 MPC M 293.95166 (2000.0) P Q n 0.70110959 Peri. 191.91470 -0.42722324 +0.90220961 a 1.2549086 Node 52.82258 -0.82332264 -0.36116540 e 0.2737329 Incl. 4.25703 -0.37365777 -0.23574852 P 1.41 H 22.2 G 0.15 U 8 MP...
|
Blobrana
|
1
|
|
|
|
|
Asteroid 2011 EC41
(Preview)
Orbital elements: 2011 EC41 Earth MOID = 0.1447 AU Epoch 2011 Feb. 8.0 TT = JDT 2455600.5 MPC M 8.59940 (2000.0) P Q n 0.26337085 Peri. 357.69911 +0.80134518 -0.58844274 a 2.4104099 Node 39.00649 +0.55153415 +0.65711484 e 0.8789367 Incl. 9.84471 +0.23163761 +0.47110003 P 3.74 H 19.9 G 0.15 U 9 MPEC...
|
Blobrana
|
0
|
|
|
|
|
Asteroid 2011 EB41
(Preview)
Orbital elements: 2011 EB41 Earth MOID = 0.4468 AU Epoch 2011 Feb. 8.0 TT = JDT 2455600.5 MPC M 355.92768 (2000.0) P Q n 0.30935769 Peri. 65.95175 -0.93116065 -0.00957388 a 2.1651871 Node 111.75944 -0.08099752 -0.96924496 e 0.4016202 Incl. 23.10677 +0.35549858 -0.24591169 P 3.19 H 17.8 G 0.15 U 9 M...
|
Blobrana
|
0
|
|
|
|
|
Asteroid 2011 EP40
(Preview)
Orbital elements: 2011 EP40 Earth MOID = 0.2350 AU Epoch 2011 Feb. 8.0 TT = JDT 2455600.5 MPC M 195.37574 (2000.0) P Q n 0.87194699 Peri. 178.35383 +0.79818704 +0.58034949 a 1.0851156 Node 144.54086 -0.55583312 +0.81288775 e 0.2841721 Incl. 16.16719 -0.23226491 +0.04907115 P 1.13 H 20.6 G 0.15 U 9...
|
Blobrana
|
0
|
|
|
|
|
Asteroid 2011 EE41
(Preview)
Orbital elements: 2011 EE41 Earth MOID = 0.0855 AU Epoch 2011 Feb. 8.0 TT = JDT 2455600.5 MPC M 136.28369 (2000.0) P Q n 1.10413684 Peri. 350.09688 +0.99585154 +0.08970021 a 0.9270876 Node 4.83592 -0.06602793 +0.82793315 e 0.1800164 Incl. 10.44507 -0.06261009 +0.55360688 P 0.89 H 24.3 G 0.15 U 9 MP...
|
Blobrana
|
0
|
|
|